K5LUO Weather Reports


time (UTC)temp
C
wind
direction
speed
KPH
gust
KPH
rain 1hr
cm
rain 24hr
cm
rain mn
cm
humidity
%
barometer
mb
20260506073022 9 37 16.1 32.2 0.00 0.00 0.00 71 1012.1
20260506071609 9 10 14.5 32.2 0.00 0.00 0.00 71 1012.4
20260506061507 9 29 9.7 33.8 0.00 0.00 0.00 73 1012.4
20260506060104 9 41 16.1 33.8 0.00 0.00 0.00 74 1012.2
20260506044626 10 355 12.9 25.7 0.00 0.00 0.00 78 1012.3
20260506043052 10 36 16.1 30.6 0.00 0.00 0.00 78 1012.3
20260506041537 10 49 16.1 25.7 0.00 0.00 0.00 78 1012.5
20260506040127 10 15 16.1 29.0 0.00 0.00 0.00 79 1012.4
20260506034607 10 342 9.7 20.9 0.00 0.00 0.00 79 1012.1
20260506033010 10 43 11.3 29.0 0.00 0.00 0.00 78 1012.2
20260506031613 10 16 9.7 25.7 0.00 0.00 0.00 78 1011.8
20260506030042 10 17 20.9 33.8 0.00 0.00 0.00 77 1011.6
20260506024620 10 15 12.9 29.0 0.00 0.00 0.00 77 1010.8
20260506023043 10 343 22.5 35.4 0.00 0.00 0.00 77 1010.9
20260506021633 10 44 12.9 32.2 0.00 0.00 0.00 77 1010.6
20260506020055 10 355 14.5 24.1 0.00 0.00 0.00 77 1010.4
20260506014519 10 17 17.7 35.4 0.00 0.00 0.00 77 1010.4
20260506013111 10 26 20.9 30.6 0.00 0.00 0.00 76 1010.1
20260506011536 11 18 14.5 30.6 0.00 0.00 0.00 75 1009.8
20260506010124 11 22 11.3 30.6 0.00 0.00 0.00 75 1009.3
20260506004551 11 48 14.5 33.8 0.00 0.00 0.00 75 1009.0
20260506003022 11 28 14.5 33.8 0.00 0.00 0.00 75 1008.8
20260506001603 11 355 17.7 32.2 0.00 0.00 0.00 76 1008.8
20260506000024 11 51 19.3 29.0 0.00 0.00 0.00 76 1008.8
20260505234623 11 360 17.7 30.6 0.00 0.00 0.00 75 1008.8
20260505233043 11 19 9.7 29.0 0.00 0.00 0.00 76 1008.6
20260505231502 11 355 12.9 33.8 0.00 0.00 0.00 75 1008.2
20260505230053 12 10 17.7 32.2 0.00 0.00 0.00 75 1008.5
20260505224508 12 347 19.3 33.8 0.00 0.00 0.00 76 1008.4
20260505223100 12 342 17.7 24.1 0.00 0.00 0.00 77 1007.8
20260505221547 12 15 16.1 30.6 0.00 0.00 0.00 77 1007.3
20260505220013 12 19 20.9 40.2 0.00 0.00 0.00 77 1006.8
20260505214613 12 360 20.9 38.6 0.00 0.00 0.00 77 1006.8
20260505213023 12 16 14.5 24.1 0.00 0.00 0.00 80 1006.6
20260505211618 12 337 20.9 37.0 0.00 0.00 0.00 80 1006.9
20260505210035 12 355 22.5 33.8 0.00 0.00 0.00 81 1006.8
20260505204505 13 40 16.1 29.0 0.00 0.00 0.00 81 1006.6
20260505203059 13 9 20.9 40.2 0.00 0.00 0.00 82 1006.5
20260505201521 13 16 22.5 37.0 0.00 0.00 0.00 82 1006.3
20260505200101 13 346 24.1 40.2 0.00 0.00 0.00 81 1006.4
20260505194529 13 18 22.5 41.8 0.00 0.00 0.00 81 1006.0
20260505193132 13 355 24.1 38.6 0.00 0.00 0.00 81 1006.1
20260505191542 14 360 19.3 33.8 0.00 0.00 0.00 81 1004.8
20260505190000 14 327 27.4 37.0 0.00 0.00 0.00 81 1005.5
20260505184603 14 5 19.3 37.0 0.00 0.00 0.00 81 1005.0
20260505183021 14 335 24.1 40.2 0.00 0.00 0.00 80 1004.9
20260505181607 15 9 19.3 41.8 0.00 0.00 0.00 79 1004.3
20260505180034 16 344 19.3 43.5 0.00 0.00 0.00 78 1004.3
20260505174622 18 331 29.0 48.3 0.00 0.00 0.00 75 1004.0
20260505173039 23 346 22.5 38.6 0.00 0.00 0.00 66 1003.3
20260505171506 25 259 6.4 11.3 0.00 0.00 0.00 68 1002.5
20260505170054 25 254 3.2 8.0 0.00 0.00 0.00 68 1002.4
20260505164504 24 259 3.2 11.3 0.00 0.00 0.00 71 1002.2
20260505163054 23 273 6.4 14.5 0.00 0.00 0.00 72 1002.1
20260505161516 23 225 11.3 16.1 0.00 0.00 0.00 72 1002.1
20260505160107 23 205 4.8 12.9 0.00 0.00 0.00 73 1001.7
20260505153114 23 219 8.0 17.7 0.00 0.00 0.00 73 1001.6
20260505151526 23 184 6.4 16.1 0.00 0.00 0.00 74 1001.4
20260505150121 23 203 3.2 9.7 0.00 0.00 0.00 75 1001.3
20260505124625 21 211 8.0 20.9 0.00 0.00 0.00 78 1000.3
20260505123053 21 211 12.9 24.1 0.00 0.00 0.00 79 1000.0
20260505121502 21 198 11.3 22.5 0.00 0.00 0.00 79 999.8
20260505120056 21 192 14.5 29.0 0.00 0.00 0.00 80 999.5
20260505114502 21 173 14.5 32.2 0.00 0.00 0.00 80 998.9
20260505113057 20 190 12.9 22.5 0.00 0.00 0.00 81 998.7
20260505111522 20 171 12.9 24.1 0.00 0.00 0.00 80 999.0
20260505110137 21 186 9.7 20.9 0.00 0.00 0.00 80 999.0
20260505101503 21 201 11.3 22.5 0.00 0.00 0.00 80 998.9
20260505100056 21 182 11.3 24.1 0.00 0.00 0.00 80 999.2
20260505094518 21 175 11.3 25.7 0.00 0.00 0.00 79 999.1
20260505093112 21 184 12.9 25.7 0.00 0.00 0.00 79 999.2
20260505091530 21 188 9.7 24.1 0.00 0.00 0.00 78 999.2
20260505090124 21 173 9.7 24.1 0.00 0.00 0.00 78 999.2
20260505084559 21 181 9.7 19.3 0.00 0.00 0.00 78 999.2
20260505083001 21 185 9.7 24.1 0.00 0.00 0.00 77 999.3
20260505081601 21 198 8.0 29.0 0.00 0.00 0.00 77 999.4